• Processing (Info)

  • MPEC 2004-H69 : 2004 HK33

    The following Minor Planet Electronic Circular may be linked-to from your own Web pages, but must not otherwise be redistributed electronically.

    A form allowing access to any MPEC is at the bottom of this page.


    Read MPEC 2004-H68 Read MPEC 2004-H70


    M.P.E.C. 2004-H69                                Issued 2004 Apr. 24, 23:09 UT
    
         The Minor Planet Electronic Circulars contain information on unusual
             minor planets and routine data on comets.  They are published
       on behalf of Commission 20 of the International Astronomical Union by the
              Minor Planet Center, Smithsonian Astrophysical Observatory,
                              Cambridge, MA 02138, U.S.A.
    
             Supported in part by the Steven and Michele Kirsch Foundation
                 Prepared using the Tamkin Foundation Computer Network
    
                                  MPC@CFA.HARVARD.EDU
              URL http://cfa-www.harvard.edu/iau/mpc.html  ISSN 1523-6714
    
                                       2004 HK33
    
    Observations:
         K04H33K* C2004 04 21.41803 19 45 23.61 -14 36 33.5          19.1   EH069704
         K04H33K  C2004 04 21.42925 19 45 26.74 -14 36 27.6          19.4   EH069704
         K04H33K  C2004 04 21.44045 19 45 29.90 -14 36 21.4          19.2   EH069704
         K04H33K  C2004 04 21.45163 19 45 33.05 -14 36 14.5          18.9   EH069704
         K04H33K  C2004 04 21.46276 19 45 36.13 -14 36 08.0          19.4   EH069704
         K04H33K  C2004 04 22.40328 19 50 05.62 -14 26 36.6          18.9   EH069704
         K04H33K  C2004 04 22.41399 19 50 08.72 -14 26 30.5          19.2   EH069704
         K04H33K  C2004 04 22.43567 19 50 14.98 -14 26 16.2          19.2   EH069704
         K04H33K  C2004 04 23.12802 19 53 35.56 -14 19 00.6          18.5 R EH069599
         K04H33K  C2004 04 23.12925 19 53 35.93 -14 18 59.7          18.2 R EH069599
         K04H33K  C2004 04 23.13047 19 53 36.24 -14 18 59.1          18.1 R EH069599
         K04H33K  C2004 04 24.40895 19 59 52.97 -14 04 49.8          18.8   EH069704
         K04H33K  C2004 04 24.41946 19 59 56.06 -14 04 43.3          18.9   EH069704
         K04H33K  C2004 04 24.43008 19 59 59.15 -14 04 37.0          19.1   EH069704
    
    Observer details:
    599 Campo Imperatore-CINEOS.  Observers A. Boattini, A. Giunta, D. Perna,
        A. Di Paola.  0.60-m f/3 Schmidt + CCD.
    704 Lincoln Laboratory ETS, New Mexico.  Observers M. Blythe, F. Shelly,
        M. Bezpalko, R. Huber, L. Manguso, D. Torres, R. Kracke, M. McCleary,
        H. Stange, A. Milner.  Measurers J. Stuart, R. Sayer, J. Evans, J. Kommers.
        1.0-m f/2.15 reflector + CCD.
    
    Orbital elements:
    2004 HK33                                                            PHA 0.007
    Epoch 2004 Apr. 5.0 TT = JDT 2453100.5                  MPC
    M 317.26706              (2000.0)            P               Q
    n   0.45207324     Peri.  225.92667     +0.85737487     +0.50667602
    a   1.6813709      Node   103.43547     -0.44163531     +0.81450414
    e   0.4739679      Incl.    5.33808     -0.26432289     +0.28259939
    P   2.18           H   17.0           G   0.15
    From 14 observations 2004 Apr. 21-24.
    
    Ephemeris:
    2004 HK33                a,e,i = 1.68, 0.47, 5                   q = 0.8845
    Date    TT    R. A. (2000) Decl.     Delta      r     Elong.  Phase     V
    2004 04 25    20 02.81   -13 57.9    0.639    1.239    95.1    54.0    18.5
    2004 05 05    20 56.62   -11 32.1    0.565    1.169    91.5    59.6    18.2
    2004 05 15    21 57.50   -08 04.5    0.517    1.101    85.8    66.3    18.1
    2004 05 25    23 02.55   -03 45.8    0.498    1.038    78.8    73.2    18.1
    2004 06 04    00 07.10   +00 49.7    0.509    0.982    71.7    78.8    18.2
    2004 06 14    01 07.08   +05 04.7    0.546    0.936    65.8    82.0    18.4
    2004 06 24    02 00.75   +08 39.2    0.602    0.903    61.7    82.4    18.6
    
    Kyle E. Smalley              (C) Copyright 2004 MPC           M.P.E.C. 2004-H69
    

    Read MPEC 2004-H68 Read MPEC 2004-H70


    MPEC number:

    Enter an MPEC number in one of the following forms:

    • 1997-B01 (the full form)
    • J97B01 (the packed version of the full form)
    • B01 (the abbreviated form)